Weather History for KC75 - February, 2012

Change the Weather History Date:

Wednesday, February 15, 2012

  Actual Average (KPIA) Record (KPIA)
Temperature  
Mean Temperature 36 °F 29 °F  
Max Temperature 42 °F 38 °F 72 °F (1921)
Min Temperature 29 °F 21 °F -15 °F (1905)
Degree Days  
Heating Degree Days 30 36  
Month to date heating degree days 564  
Since 1 July heating degree days 4085  
Cooling Degree Days 0 0  
Month to date cooling degree days 0  
Year to date cooling degree days 0  
Moisture  
Dew Point 34 °F    
Average Humidity 90    
Maximum Humidity 100    
Minimum Humidity 81    
Precipitation  
Precipitation 0.00 in 0.06 in 1.77 in (1954)
Month to date precipitation 0.86  
Year to date precipitation 2.64  
Snow  
Snow 0.00 in 0.20 in 4.00 in (1903)
Month to date snowfall 3.6  
Since 1 July snowfall 18.7  
Snow Depth -    
Sea Level Pressure  
Sea Level Pressure 30.01 in    
Wind  
Wind Speed 6 mph (SSE)    
Max Wind Speed 12 mph    
Max Gust Speed 17 mph    
Visibility 7 miles    
Events Rain    
T = Trace of Precipitation, MM = Missing Value Source: NWS Daily Summary

Daily Weather History Graph

Daily Weather History Graph

Search for Another Location

Airport or City:

Trip Planner

Search our weather history database for the weather conditions in past years. The results will help you decide how hot, cold, wet, or windy it might be!

Date:

Astronomy

Feb. 15, 2012 Rise Set
Actual Time 6:52 AM CST 5:31 PM CST
Civil Twilight 6:24 AM CST 5:59 PM CST
Nautical Twilight 5:52 AM CST 6:31 PM CST
Astronomical Twilight 5:20 AM CST 7:03 PM CST
Moon 1:47 AM CST (2/15) 11:25 AM CST (2/15)
Length of Visible Light 11h 35m
Length of Day
10h 38m
Last Quarter, 38% of the Moon is Illuminated
Feb 15
Last Quarter
Feb 21
New
Feb 29
First Quarter
Mar 8
Full
Mar 14
Last Quarter

Hourly Weather History & Observations

Time (CST) Temp. Windchill Dew Point Humidity Pressure Visibility Wind Dir Wind Speed Gust Speed Precip Events Conditions
12:15 AM 33.8 °F 26.4 °F 31.3 °F 90% 30.02 in 10.0 mi South 9.2 mph - N/A   Overcast
12:35 AM 33.6 °F 26.8 °F 31.1 °F 90% 30.02 in 10.0 mi South 8.1 mph - N/A   Overcast
12:55 AM 33.8 °F 28.6 °F 32.0 °F 93% 30.02 in 10.0 mi South 5.8 mph - N/A   Overcast
1:15 AM 33.1 °F 28.7 °F 31.1 °F 92% 30.02 in 10.0 mi SSE 4.6 mph - N/A   Overcast
1:35 AM 32.7 °F 29.6 °F 31.1 °F 94% 30.03 in 10.0 mi SSE 3.5 mph - N/A   Overcast
1:55 AM 32.0 °F 27.5 °F 30.0 °F 92% 30.03 in 10.0 mi SSE 4.6 mph - N/A   Scattered Clouds
2:15 AM 32.0 °F 27.5 °F 30.2 °F 93% 30.03 in 10.0 mi SE 4.6 mph - N/A   Clear
2:35 AM 31.8 °F 27.3 °F 30.2 °F 94% 30.03 in 7.0 mi SE 4.6 mph - N/A   Scattered Clouds
2:55 AM 31.5 °F 26.8 °F 30.2 °F 95% 30.03 in 7.0 mi ESE 4.6 mph - N/A   Scattered Clouds
3:15 AM 30.9 °F 27.5 °F 29.8 °F 96% 30.03 in 7.0 mi ESE 3.5 mph - N/A   Clear
3:35 AM 30.4 °F 25.6 °F 29.5 °F 96% 30.03 in 5.0 mi SE 4.6 mph - N/A   Scattered Clouds
3:55 AM 31.1 °F 26.4 °F 30.4 °F 97% 30.03 in 5.0 mi SE 4.6 mph - N/A   Mostly Cloudy
4:15 AM 31.3 °F 26.6 °F 30.2 °F 96% 30.03 in 5.0 mi ESE 4.6 mph - N/A   Mostly Cloudy
4:35 AM 30.9 °F 26.2 °F 30.0 °F 96% 30.04 in 5.0 mi ESE 4.6 mph - N/A   Scattered Clouds
4:55 AM 29.8 °F 24.9 °F 28.8 °F 96% 30.04 in 5.0 mi SE 4.6 mph - N/A   Mostly Cloudy
5:15 AM 31.6 °F 27.0 °F 30.9 °F 97% 30.04 in 5.0 mi SE 4.6 mph - N/A   Overcast
5:35 AM 32.0 °F 27.5 °F 31.1 °F 96% 30.03 in 7.0 mi SE 4.6 mph - N/A   Mostly Cloudy
5:55 AM 32.0 °F 24.8 °F 32.0 °F 100% 30.03 in 7.0 mi SE 8.1 mph - N/A   Mostly Cloudy
6:15 AM 32.0 °F - 31.1 °F 96% 30.04 in 7.0 mi Calm Calm - N/A   Scattered Clouds
6:35 AM 32.0 °F 27.5 °F 32.0 °F 100% 30.04 in 7.0 mi ESE 4.6 mph - N/A   Overcast
6:55 AM 32.4 °F 26.0 °F 32.0 °F 99% 30.03 in 7.0 mi SE 6.9 mph - N/A   Overcast
7:15 AM 33.8 °F 28.6 °F 32.2 °F 94% 30.04 in 7.0 mi SSE 5.8 mph - N/A   Overcast
7:35 AM 34.0 °F 28.8 °F 32.4 °F 94% 30.04 in 7.0 mi SE 5.8 mph - N/A   Overcast
7:55 AM 34.5 °F 28.6 °F 32.9 °F 94% 30.03 in 7.0 mi SE 6.9 mph - N/A   Mostly Cloudy
8:15 AM 35.6 °F 29.2 °F 33.8 °F 93% 30.03 in 7.0 mi SE 8.1 mph - N/A   Scattered Clouds
8:35 AM 35.8 °F 29.4 °F 33.6 °F 92% 30.03 in 7.0 mi SE 8.1 mph - N/A   Mostly Cloudy
8:55 AM 36.5 °F 29.7 °F 34.0 °F 91% 30.02 in 7.0 mi SE 9.2 mph - N/A   Mostly Cloudy
9:15 AM 37.4 °F 33.8 °F 34.5 °F 89% 30.03 in 7.0 mi SE 4.6 mph - N/A   Overcast
9:35 AM 37.9 °F 32.1 °F 34.7 °F 88% 30.03 in 7.0 mi South 8.1 mph - N/A   Overcast
9:55 AM 38.3 °F 33.9 °F 34.9 °F 87% 30.04 in 7.0 mi SSE 5.8 mph - N/A   Overcast
10:15 AM 38.3 °F 33.2 °F 34.7 °F 87% 30.04 in 7.0 mi SSE 6.9 mph - N/A   Overcast
10:35 AM 39.4 °F 34.5 °F 35.6 °F 86% 30.03 in 7.0 mi SSE 6.9 mph - N/A   Overcast
10:55 AM 40.1 °F 33.2 °F 35.4 °F 83% 30.03 in 7.0 mi South 11.5 mph 17.3 mph N/A   Overcast
11:15 AM 39.9 °F 32.9 °F 35.6 °F 85% 30.03 in 7.0 mi South 11.5 mph - N/A   Overcast
11:35 AM 40.1 °F 34.1 °F 35.6 °F 84% 30.03 in 7.0 mi SSE 9.2 mph - N/A   Overcast
11:55 AM 40.1 °F 34.7 °F 35.6 °F 84% 30.02 in 7.0 mi South 8.1 mph - N/A   Overcast
12:15 PM 40.8 °F 35.6 °F 36.3 °F 84% 30.01 in 7.0 mi SSE 8.1 mph - N/A   Overcast
12:35 PM 41.0 °F 35.8 °F 36.3 °F 83% 30.00 in 7.0 mi SSE 8.1 mph - N/A   Overcast
12:55 PM 41.4 °F 36.8 °F 36.5 °F 83% 30.00 in 7.0 mi SSE 6.9 mph - N/A   Overcast
1:15 PM 41.9 °F 36.9 °F 36.9 °F 82% 30.00 in 7.0 mi SSE 8.1 mph - N/A   Overcast
1:35 PM 41.9 °F 36.9 °F 37.0 °F 83% 29.99 in 7.0 mi SSE 8.1 mph - N/A   Overcast
1:55 PM 41.9 °F 38.2 °F 37.4 °F 84% 29.99 in 7.0 mi SSE 5.8 mph - N/A   Overcast
2:15 PM 41.9 °F 39.0 °F 37.4 °F 84% 29.98 in 7.0 mi SSE 4.6 mph - N/A   Overcast
2:35 PM 42.8 °F 40.1 °F 37.4 °F 81% 29.98 in 7.0 mi SSE 4.6 mph - N/A   Overcast
2:55 PM 42.8 °F 39.3 °F 37.9 °F 83% 29.98 in 7.0 mi SSE 5.8 mph - N/A   Overcast
3:15 PM 42.8 °F 39.3 °F 38.3 °F 84% 29.96 in 7.0 mi SSE 5.8 mph - N/A   Overcast
3:35 PM 42.8 °F 39.3 °F 38.3 °F 84% 29.95 in 7.0 mi SSE 5.8 mph - N/A   Overcast
3:55 PM 42.1 °F 37.7 °F 38.3 °F 86% 29.93 in 5.0 mi SE 6.9 mph - N/A   Overcast
4:15 PM 41.9 °F 36.3 °F 38.7 °F 88% 29.94 in 5.0 mi SE 9.2 mph - N/A   Overcast
4:35 PM 41.9 °F 38.2 °F 38.8 °F 89% 29.94 in 5.0 mi SSE 5.8 mph - N/A   Overcast
4:55 PM 41.4 °F 37.6 °F 38.7 °F 90% 29.96 in 5.0 mi SSE 5.8 mph - N/A   Overcast
5:15 PM 41.0 °F 38.0 °F 38.5 °F 91% 29.96 in 4.0 mi SE 4.6 mph - N/A Rain Light Rain
5:35 PM 40.3 °F 37.1 °F 38.5 °F 93% 29.97 in 5.0 mi SE 4.6 mph - N/A   Overcast
5:55 PM 40.1 °F 36.9 °F 38.5 °F 94% 29.96 in 5.0 mi SSE 4.6 mph - N/A Rain Light Rain
6:15 PM 39.9 °F 35.8 °F 38.5 °F 95% 29.97 in 4.0 mi SSE 5.8 mph - N/A Rain Light Rain
6:35 PM 39.4 °F - 38.7 °F 97% 29.97 in 3.0 mi Calm Calm - 0.01 in Rain Light Rain
6:55 PM 39.2 °F - 38.7 °F 98% 29.97 in 2.5 mi Calm Calm - 0.02 in Rain Rain
7:15 PM 39.2 °F - 38.8 °F 99% 29.97 in 2.0 mi Calm Calm - 0.01 in   Heavy Drizzle
7:35 PM 38.5 °F - 38.3 °F 99% 29.97 in 1.0 mi Calm Calm - 0.06 in Rain Rain
7:55 PM 38.8 °F 36.5 °F 38.8 °F 100% 29.96 in 1.8 mi East 3.5 mph - 0.07 in Rain Rain
8:15 PM 38.7 °F 36.3 °F 38.7 °F 100% 29.96 in 1.8 mi ESE 3.5 mph - N/A Rain Rain
8:35 PM 38.7 °F - 38.7 °F 100% 29.97 in 2.0 mi Calm Calm - 0.01 in Rain Light Rain
8:55 PM 38.5 °F 34.1 °F 38.5 °F 100% 29.97 in 2.0 mi ESE 5.8 mph - 0.01 in Rain Rain
9:15 PM 38.7 °F 36.3 °F 38.7 °F 100% 29.97 in 2.0 mi East 3.5 mph - N/A   Light Drizzle
9:35 PM 38.7 °F 36.3 °F 38.7 °F 100% 29.97 in 2.0 mi ESE 3.5 mph - N/A Rain Rain
9:55 PM 38.5 °F 36.1 °F 38.5 °F 100% 29.96 in 2.0 mi ESE 3.5 mph - 0.01 in Rain Rain
10:15 PM 38.7 °F - 38.7 °F 100% 29.96 in 2.5 mi Calm Calm - N/A   Drizzle
10:35 PM 38.5 °F 36.1 °F 38.5 °F 100% 29.96 in 2.0 mi ESE 3.5 mph - 0.01 in Rain Rain
10:55 PM 38.3 °F 35.9 °F 38.3 °F 100% 29.96 in 2.0 mi SE 3.5 mph - 0.03 in Rain Rain
11:15 PM 38.3 °F 35.9 °F 38.3 °F 100% 29.96 in 1.8 mi SE 3.5 mph - N/A   Overcast
11:35 PM 38.3 °F - 38.3 °F 100% 29.96 in 1.5 mi Calm Calm - N/A   Overcast
11:55 PM 37.9 °F - 37.9 °F 100% 29.96 in 1.8 mi Calm Calm - N/A   Overcast